128  
ASUS44 KLCH 221210  
RWRLCH  
REGIONAL WEATHER ROUNDUP  
NATIONAL WEATHER SERVICE LAKE CHARLES LA  
600 AM CST MON JAN 22 2018  
 
NOTE: "FAIR" INDICATES FEW OR NO CLOUDS BELOW 12,000 FEET WITH NO  
SIGNIFICANT WEATHER AND/OR S TO VISIBILITY
.  
 
ACROSS SOUTHEAST TEXAS  
 
CITY SKY/WX TMP DP RH WIND PRES REMARKS
 
BEAUMONT CLOUDY 66 65 96 W7 29.91R  
BEAUMONT CITY CLOUDY 67 64 93 W3 29.92R  
ORANGE CLOUDY 66 66 100 W5 29.93R  
JASPER CLOUDY 62 54 75 W5 29.95R  

 
 
ACROSS CENTRAL LOUISIANA  
 
CITY SKY/WX TMP DP RH WIND PRES REMARKS
 
LEESVILLE MOCLDY 64 63 94 W9 29.89R  
FULLERTON LGT RAIN 65 64 97 VRB5 29.87R FOG  
ALEXANDRIA INT LGT RAIN 65 63 93 W14 29.86R  
ESLER FIELD LGT RAIN 64 63 96 W13 29.88R FOG  
DERIDDER CLOUDY 64 63 96 W5 29.91R  
OAKDALE RAIN 68 65 90 SW8 29.89R  
OPELOUSAS CLOUDY 66 65 95 S18G25 29.88S  

 
 
ACROSS SOUTHWEST AND SOUTH CENTRAL LOUISIANA  
 
CITY SKY/WX TMP DP RH WIND PRES REMARKS
 
SULPHUR RAIN 64 64 100 W5 29.92R  
LAKE CHARLES LGT RAIN 63 63 100 SW5 29.91R  
CHENNAULT INT TSTM 61 61 100 SW6 29.92S  
CAMERON PHI FOG 61 61 100 MISG 29.92R VSB 1/2  
DEQUINCY CLOUDY 63 61 94 CALM 29.91R  
JENNINGS TSTM 65 64 97 W21 29.94R  
LAFAYETTE CLOUDY 64 64 100 S12 29.91S FOG  
NEW IBERIA CLOUDY 65 63 93 S13 29.92S  
ABBEVILLE CLOUDY 62 62 100 S9 29.92S FOG  
PATTERSON CLOUDY 66 65 96 S10 29.94S  
SALT POINT N/A 63 63 100 VRB6 29.92S  

 
 
SELECTED SITES ACROSS THE REGION  
 
CITY SKY/WX TMP DP RH WIND PRES REMARKS
 
HOUSTON BUSH PTCLDY 61 48 62 NW6 29.96R  
HOUSTON HOBBY FAIR 65 48 54 NW12 29.95R  
GALVESTON CLOUDY 65 65 100 W7 29.94R FOG  
COLLEGE STAT CLEAR 53 32 44 NW8 29.99R  
CONROE CLEAR 54 44 69 NW8 29.95R  
HUNTSVILLE CLEAR 56 36 47 W10 29.97R  
LUFKIN MOCLDY 55 39 54 W6 29.93R  
SHREVEPORT PTCLDY 52 46 80 W9 29.88R  
MONROE CLOUDY 58 48 69 W7 29.88R  
NATCHEZ MS CLOUDY 65 63 93 S14G20 29.87R  
BATON ROUGE CLOUDY 65 63 93 S12 29.91S  
N.O. INTL ARPT CLOUDY 63 63 100 S5 29.97R  
SLIDELL CLOUDY 63 59 87 S7 29.97R  

 
 
MARINE REPORTS  
 
STATION/POSITION TIME SKY/WX TEMP WIND PRES VSBY
 
AIR SEA DIR/SP/G  
(UTC) (F) (DEG/KT/KT) (MB) (MI)  
BUOY 30 S HIGH I 1050 56 52 260/ 10/ 16 1013.0  
WVE H/P(F/S)= 3/ 6  
 
SEA RIM ST PARK 1200 62 210/ 9/ 10 1013.6R  
PORT ARTHUR 1148 66 49 270/ 7/ 14 1012.9R  
SABINE PASS N 1148 62 52 220/ 7/ 12 1014.5R  
TEXAS POINT NOT AVBL  
CALCASIEU PASS 1148 63 49 280/ 13/ 20 1011.9R  
LK CHARLES BEACH 1148 62 54 1012.3R  
MARSH ISLAND 1100 62 N/A  
FRESH WATER LOCK 1148 57 49 170/ 10/ 11 1013.1R  
AMERADA PASS 1148 63 46 160/ 4/ 6 1013.5F  

 
 
 
CLICK HERE TO GO TO PREVIOUS BULLETINS.

The Nexlab LA Page
The Nexlab TX Page Main Text Page